Location: Chiroubles
(46.1812°N, 4.6660°E)
Time: 03:00:08
(UTC+00:00)

Explorer 7 - Pass Details

Date: 30 November 2020
Orbit: 484 x 678 km, 50.3° (Epoch: 25 January)

Event Time Altitude Azimuth Distance (km) Brightness Sun altitude
Exits shadow 06:22:42 - 291° (WNW) 1,941 8.9 -6.9°
Reaches altitude 10° 06:22:58 10° 291° (WNW) 1,832 8.8 -6.9°
Maximum altitude 06:27:05 67° 209° (SSW) 576 6.9 -6.2°
Drops below altitude 10° 06:30:58 10° 127° (SE) 1,723 11.1 -5.6°
Sets 06:33:06 0° 124° (SE) 2,583 12.7 -5.3°
